Location: Elma
(49.8670°N, 95.9170°W)
Time: 00:44:52
(UTC-05:00)

ISS - Pass Details

Date: 31 March 2019
Orbit: 408 x 410 km, 51.6° (Epoch: 25 April)

Event Time Altitude Azimuth Distance (km) Brightness Sun altitude
Rises 21:44:45 0° 286° (WNW) 2,338 1.6 -17.6°
Reaches altitude 10° 21:46:51 10° 286° (WNW) 1,475 0.2 -17.9°
Maximum altitude 21:50:09 89° 198° (SSW) 414 -3.9 -18.4°
Enters shadow 21:50:30 69° 111° (ESE) 440 -4.0 -18.4°
